VK2HN Weather Reports


Display with metric or nautical units.
time (UTC)temp
F
wind
direction
speed
MPH
gust
MPH
rain 1hr
in
rain 24hr
in
rain mn
in
humidity
%
barometer
mb
20260505054542 72 190 1.0 3.0 0.00 0.00 0.00 49 1017.6
20260505054042 72 190 1.0 3.0 0.00 0.00 0.00 51 1017.6
20260505053542 72 207 2.0 3.0 0.00 0.00 0.00 52 1017.6
20260505053042 72 207 1.0 4.0 0.00 0.00 0.00 49 1017.6
20260505052542 72 175 1.0 3.0 0.00 0.00 0.00 49 1017.6
20260505052042 72 175 1.0 4.0 0.00 0.00 0.00 51 1017.6
20260505051542 72 173 1.0 3.0 0.00 0.00 0.00 49 1017.7
20260505051042 73 166 1.0 3.0 0.00 0.00 0.00 50 1017.6
20260505050542 73 167 2.0 4.0 0.00 0.00 0.00 48 1017.6
20260505041542 76 190 2.0 4.0 0.00 0.00 0.00 45 1017.1
20260505041042 76 182 2.0 4.0 0.00 0.00 0.00 49 1017.1
20260505040542 75 211 2.0 5.0 0.00 0.00 0.00 49 1017.1
20260505040042 75 125 2.0 3.0 0.00 0.00 0.00 51 1017.1
20260505035542 74 119 2.0 3.0 0.00 0.00 0.00 51 1017.0
20260505035042 74 118 2.0 6.0 0.00 0.00 0.00 54 1017.1
20260505034542 74 113 2.0 4.0 0.00 0.00 0.00 51 1017.1
20260505034042 74 257 3.0 4.0 0.00 0.00 0.00 51 1017.1
20260505033542 74 244 3.0 5.0 0.00 0.00 0.00 48 1017.3
20260505033042 75 326 2.0 5.0 0.00 0.00 0.00 51 1017.2
20260505032542 75 223 3.0 4.0 0.00 0.00 0.00 50 1017.3
20260505032042 74 232 3.0 9.0 0.00 0.00 0.00 49 1017.5
20260505031542 74 246 2.0 6.0 0.00 0.00 0.00 52 1017.5
20260505031042 74 220 2.0 5.0 0.00 0.00 0.00 49 1017.6
20260505030542 74 178 2.0 5.0 0.00 0.00 0.00 50 1017.6
20260505030042 74 293 3.0 4.0 0.00 0.00 0.00 52 1017.7
20260505025542 74 273 3.0 9.0 0.00 0.00 0.00 48 1017.7
20260505025042 74 236 2.0 4.0 0.00 0.00 0.00 52 1017.7
20260505024542 74 238 3.0 4.0 0.00 0.00 0.00 51 1018.0
20260505024042 74 284 3.0 7.0 0.00 0.00 0.00 50 1018.0
20260505023542 74 309 2.0 5.0 0.00 0.00 0.00 52 1018.1
20260505023042 73 255 2.0 4.0 0.00 0.00 0.00 55 1018.1
20260505022542 73 260 2.0 5.0 0.00 0.00 0.00 51 1018.3
20260505022042 73 312 3.0 7.0 0.00 0.00 0.00 53 1018.3
20260505021542 73 290 3.0 7.0 0.00 0.00 0.00 55 1018.3
20260505021042 73 294 3.0 6.0 0.00 0.00 0.00 52 1018.5
20260505020542 73 199 2.0 6.0 0.00 0.00 0.00 56 1018.4
20260505020042 72 205 2.0 4.0 0.00 0.00 0.00 53 1018.3
20260505015542 72 207 2.0 6.0 0.00 0.00 0.00 56 1018.4
20260505015042 72 212 2.0 5.0 0.00 0.00 0.00 56 1018.6
20260505014542 71 260 2.0 3.0 0.00 0.00 0.00 61 1018.5
20260505014042 71 266 3.0 8.0 0.00 0.00 0.00 59 1018.6
20260505013542 70 167 3.0 7.0 0.00 0.00 0.00 61 1018.6
20260505013042 70 264 3.0 6.0 0.00 0.00 0.00 61 1018.6
20260505012542 69 288 3.0 5.0 0.00 0.00 0.00 63 1018.9
20260505012042 69 306 2.0 7.0 0.00 0.00 0.00 62 1018.9
20260505011542 69 173 2.0 5.0 0.00 0.00 0.00 60 1018.9
20260505011042 68 303 2.0 5.0 0.00 0.00 0.00 62 1019.0
20260505010542 67 304 2.0 4.0 0.00 0.00 0.00 63 1019.1
20260505010042 67 204 3.0 7.0 0.00 0.00 0.00 64 1019.2
20260505005542 67 263 3.0 7.0 0.00 0.00 0.00 66 1019.3
20260505005042 66 252 3.0 8.0 0.00 0.00 0.00 66 1019.5
20260505004542 66 262 2.0 7.0 0.00 0.00 0.00 68 1019.5
20260505004042 65 195 3.0 9.0 0.00 0.00 0.00 67 1019.8
20260505003542 65 340 3.0 6.0 0.00 0.00 0.00 66 1019.8
20260505003042 65 5 4.0 7.0 0.00 0.00 0.00 65 1019.6
20260505002542 65 0 3.0 8.0 0.00 0.00 0.00 68 1019.7
20260505002042 64 333 2.0 6.0 0.00 0.00 0.00 69 1019.8
20260505001542 64 223 2.0 5.0 0.00 0.00 0.00 69 1019.8
20260505001042 64 267 2.0 3.0 0.00 0.00 0.00 70 1019.8
20260505000542 64 266 2.0 6.0 0.00 0.00 0.00 69 1019.9
20260505000042 63 355 2.0 6.0 0.00 0.00 0.00 71 1019.9
20260504235542 63 315 3.0 8.0 0.00 0.00 0.00 73 1019.9
20260504235042 63 280 3.0 9.0 0.00 0.00 0.00 74 1019.8
20260504234542 62 248 3.0 7.0 0.00 0.00 0.00 77 1020.0
20260504234042 61 282 3.0 6.0 0.00 0.00 0.00 81 1019.8
20260504233542 60 289 3.0 8.0 0.00 0.00 0.00 84 1019.9
20260504233042 59 271 2.0 6.0 0.00 0.00 0.00 89 1020.0
20260504232542 59 266 2.0 8.0 0.00 0.00 0.00 90 1020.1
20260504232042 58 281 1.0 8.0 0.00 0.00 0.00 94 1020.0
20260504231542 58 197 0.0 3.0 0.00 0.00 0.00 97 1020.2
20260504231042 58 154 0.0 0.0 0.00 0.00 0.00 98 1020.3
20260504230542 58 142 0.0 0.0 0.00 0.00 0.00 98 1020.3
20260504230042 58 141 0.0 0.0 0.00 0.00 0.00 98 1020.4
20260504225542 58 141 0.0 0.0 0.00 0.00 0.00 99 1020.2
20260504225042 58 141 0.0 0.0 0.00 0.00 0.00 99 1020.3
20260504224542 58 141 0.0 0.0 0.00 0.00 0.00 99 1020.2
20260504224042 58 141 0.0 0.0 0.00 0.00 0.00 99 1020.2
20260504223542 57 141 0.0 0.0 0.00 0.00 0.00 99 1020.2
20260504223042 57 141 0.0 0.0 0.00 0.00 0.00 99 1020.2
20260504222542 57 141 0.0 0.0 0.00 0.00 0.00 99 1020.0
20260504222042 57 141 0.0 0.0 0.00 0.00 0.00 100 1020.0
20260504221542 56 141 0.0 0.0 0.00 0.00 0.00 100 1020.0
20260504221042 56 141 0.0 0.0 0.00 0.00 0.00 100 1019.9
20260504220542 55 141 0.0 0.0 0.00 0.00 0.00 100 1019.9
20260504220042 54 141 0.0 0.0 0.00 0.00 0.00 100 1019.9
20260504215542 53 141 0.0 0.0 0.00 0.00 0.00 99 1019.9
20260504215042 52 141 0.0 0.0 0.00 0.00 0.00 99 1019.9
20260504214542 51 141 0.0 0.0 0.00 0.00 0.00 99 1019.9
20260504214042 51 141 0.0 0.0 0.00 0.00 0.00 99 1019.9
20260504213543 51 141 0.0 0.0 0.00 0.00 0.00 99 1019.5
20260504213042 51 141 0.0 0.0 0.00 0.00 0.00 99 1019.4
20260504212543 50 141 0.0 0.0 0.00 0.00 0.00 99 1019.5
20260504212043 50 141 0.0 0.0 0.00 0.00 0.00 99 1019.4
20260504211543 50 141 0.0 0.0 0.00 0.00 0.00 98 1019.2
20260504211043 51 141 0.0 0.0 0.00 0.00 0.00 98 1019.1
20260504210543 51 141 0.0 0.0 0.00 0.00 0.00 98 1019.1
20260504210043 51 141 0.0 0.0 0.00 0.00 0.00 98 1018.9
20260504205543 51 141 0.0 0.0 0.00 0.00 0.00 98 1018.9
20260504205043 51 141 0.0 0.0 0.00 0.00 0.00 98 1018.8
20260504204543 51 141 0.0 0.0 0.00 0.00 0.00 98 1018.7
20260504204043 51 141 0.0 0.0 0.00 0.00 0.00 98 1018.7
20260504203543 51 141 0.0 0.0 0.00 0.00 0.00 98 1018.6
20260504203043 51 141 0.0 0.0 0.00 0.00 0.00 98 1018.5
20260504202543 51 141 0.0 0.0 0.00 0.00 0.00 98 1018.3
20260504202043 51 141 0.0 0.0 0.00 0.00 0.00 98 1018.4
20260504201543 51 141 0.0 0.0 0.00 0.00 0.00 98 1018.4
20260504201043 52 141 0.0 0.0 0.00 0.00 0.00 98 1018.3
20260504200543 52 141 0.0 0.0 0.00 0.00 0.00 98 1018.3
20260504200043 52 141 0.0 0.0 0.00 0.00 0.00 98 1018.2
20260504195543 53 141 0.0 0.0 0.00 0.00 0.00 98 1018.1
20260504195043 53 141 0.0 0.0 0.00 0.00 0.00 98 1018.2
20260504194543 53 141 0.0 0.0 0.00 0.00 0.00 98 1017.9
20260504194043 53 141 0.0 0.0 0.00 0.00 0.00 98 1017.9
20260504193543 53 141 0.0 0.0 0.00 0.00 0.00 98 1017.7
20260504193043 53 141 0.0 0.0 0.00 0.00 0.00 98 1017.8
20260504192543 53 141 0.0 0.0 0.00 0.00 0.00 98 1017.7
20260504192043 53 141 0.0 0.0 0.00 0.00 0.00 98 1017.8
20260504191543 54 141 0.0 0.0 0.00 0.00 0.00 98 1017.8
20260504191043 54 141 0.0 0.0 0.00 0.00 0.00 98 1017.6
20260504190543 54 141 0.0 0.0 0.00 0.00 0.00 98 1017.5
20260504190043 54 141 0.0 0.0 0.00 0.00 0.00 98 1017.6
20260504185543 55 141 0.0 0.0 0.00 0.00 0.00 98 1017.7
20260504185043 55 141 0.0 0.0 0.00 0.00 0.00 98 1017.6
20260504184543 55 141 0.0 0.0 0.00 0.00 0.00 98 1017.6
20260504184043 55 141 0.0 0.0 0.00 0.00 0.00 98 1017.6
20260504183543 56 141 0.0 0.0 0.00 0.00 0.00 98 1017.5
20260504183043 56 141 0.0 0.0 0.00 0.00 0.00 98 1017.3
20260504182543 56 141 0.0 0.0 0.00 0.00 0.00 98 1017.4
20260504182043 56 141 0.0 0.0 0.00 0.00 0.00 98 1017.3
20260504181543 57 141 0.0 0.0 0.00 0.00 0.00 98 1017.0
20260504181043 57 141 0.0 0.0 0.00 0.00 0.00 98 1017.0
20260504180543 57 141 0.0 0.0 0.00 0.00 0.00 98 1017.0
20260504180043 57 141 0.0 0.0 0.00 0.00 0.00 98 1016.9
20260504175543 57 141 0.0 0.0 0.00 0.00 0.00 98 1017.1
20260504175043 58 141 0.0 1.0 0.00 0.00 0.00 98 1017.0
20260504174543 58 141 0.0 0.0 0.00 0.00 0.00 98 1017.1
20260504174043 58 141 0.0 0.0 0.00 0.00 0.00 98 1017.0
20260504173543 58 141 0.0 0.0 0.00 0.00 0.00 98 1017.0
20260504173043 58 141 0.0 0.0 0.00 0.00 0.00 98 1016.8
20260504172543 58 141 0.0 0.0 0.00 0.00 0.00 98 1017.0
20260504172043 58 141 0.0 0.0 0.00 0.00 0.00 98 1017.0
20260504171543 58 141 0.0 0.0 0.00 0.00 0.00 98 1017.0
20260504171043 58 141 0.0 0.0 0.00 0.00 0.00 98 1017.0
20260504170543 58 141 0.0 0.0 0.00 0.00 0.00 98 1017.0
20260504151043 62 141 0.0 0.0 0.00 0.00 0.00 97 1017.0
20260504150543 62 141 0.0 0.0 0.00 0.00 0.00 97 1016.7
20260504141043 63 142 0.0 0.0 0.00 0.00 0.00 96 1016.9
20260504140543 63 142 0.0 0.0 0.00 0.00 0.00 96 1016.7
20260504130543 62 142 1.0 2.0 0.00 0.00 0.00 96 1016.9
20260504110544 63 104 0.0 0.0 0.00 0.00 0.00 92 1016.1
20260504100544 64 102 0.0 0.0 0.00 0.00 0.00 91 1015.4
20260504081544 65 71 0.0 0.0 0.00 0.00 0.00 95 1015.3
20260504081044 65 71 0.0 0.0 0.00 0.00 0.00 95 1015.2
20260504080544 65 71 0.0 0.0 0.00 0.00 0.00 95 1015.3